Location: *
(52.2090°N, 4.1550°W)
Time: 15:46:21
(UTC+00:00)

Cosmos 2219 Rocket - Pass Details

Date: 19 July 2019
Orbit: 829 x 846 km, 71.0° (Epoch: 23 August)

Event Time Altitude Azimuth Distance (km) Brightness Sun altitude
Exits shadow 22:58:04 - 208° (SSW) 2,592 4.3 -14.7°
Reaches altitude 10° 22:58:25 10° 208° (SSW) 2,463 4.2 -14.7°
Maximum altitude 23:04:05 88° 122° (ESE) 852 2.2 -15.0°
Drops below altitude 10° 23:09:47 10° 31° (NNE) 2,472 5.2 -15.3°
Sets 23:12:14 0° 32° (NNE) 3,408 6.0 -15.4°
